Weather History for KHYR - November, 2011

Change the Weather History Date:

Tuesday, November 1, 2011

  Actual Average Record
Temperature  
Mean Temperature 48 °F -  
Max Temperature 55 °F 53 °F 66 °F (2000)
Min Temperature 41 °F 35 °F 16 °F (2014)
Degree Days  
Heating Degree Days 17    
Moisture  
Dew Point 36 °F    
Average Humidity 71    
Maximum Humidity 90    
Minimum Humidity 47    
Precipitation  
Precipitation 0.01 in - - ()
Sea Level Pressure  
Sea Level Pressure 29.96 in    
Wind  
Wind Speed 5 mph (South)    
Max Wind Speed 9 mph    
Max Gust Speed -    
Visibility 10 miles    
Events Rain    
Averages and records for this station are not official NWS values.
T = Trace of Precipitation, MM = Missing Value Source: NWS Daily Summary

Daily Weather History Graph

Daily Weather History Graph

Search for Another Location

Airport or City:

Trip Planner

Search our weather history database for the weather conditions in past years. The results will help you decide how hot, cold, wet, or windy it might be!

Date:

Astronomy

Nov. 01, 2011 Rise Set
Actual Time 7:46 AM CDT 5:52 PM CDT
Civil Twilight 7:14 AM CDT 6:23 PM CDT
Nautical Twilight 6:39 AM CDT 6:58 PM CDT
Astronomical Twilight 6:04 AM CDT 7:33 PM CDT
Moon 1:36 PM CDT (11/1) 11:32 PM CDT (11/1)
Length of Visible Light 11h 08m
Length of Day
10h 06m
Waxing Crescent, 40% of the Moon is Illuminated
Nov 1
Waxing Crescent
Nov 2
First Quarter
Nov 10
Full
Nov 18
Last Quarter
Nov 25
New

Hourly Weather History & Observations

Time (CDT) Temp. Windchill Dew Point Humidity Pressure Visibility Wind Dir Wind Speed Gust Speed Precip Events Conditions
12:53 AM 41.0 °F 37.1 °F 35.1 °F 79% 29.99 in 10.0 mi South 5.8 mph - N/A   Overcast
1:53 AM 41.0 °F 37.1 °F 35.1 °F 79% 29.97 in 10.0 mi South 5.8 mph - N/A   Overcast
2:53 AM 42.1 °F 38.4 °F 35.1 °F 76% 29.96 in 10.0 mi South 5.8 mph - N/A   Overcast
3:53 AM 42.1 °F 36.6 °F 34.0 °F 73% 29.95 in 10.0 mi South 9.2 mph - N/A   Overcast
4:53 AM 42.1 °F 37.1 °F 35.1 °F 76% 29.94 in 10.0 mi South 8.1 mph - 0.00 in Rain Light Rain
5:53 AM 41.0 °F 36.4 °F 36.0 °F 82% 29.94 in 10.0 mi South 6.9 mph - 0.00 in Rain Light Rain
6:53 AM 41.0 °F 37.1 °F 35.1 °F 79% 29.93 in 10.0 mi South 5.8 mph - N/A   Mostly Cloudy
7:53 AM 41.0 °F 36.4 °F 35.1 °F 79% 29.93 in 10.0 mi South 6.9 mph - N/A   Scattered Clouds
8:53 AM 43.0 °F 39.5 °F 35.1 °F 74% 29.94 in 10.0 mi South 5.8 mph - N/A   Overcast
9:53 AM 45.0 °F 40.6 °F 35.1 °F 68% 29.92 in 10.0 mi South 8.1 mph - N/A   Partly Cloudy
10:53 AM 46.9 °F - 36.0 °F 66% 29.94 in 10.0 mi South 6.9 mph - N/A   Partly Cloudy
11:53 AM 48.9 °F - 36.0 °F 61% 29.93 in 10.0 mi Calm Calm - N/A   Mostly Cloudy
12:53 PM 51.1 °F - 35.1 °F 54% 29.91 in 10.0 mi SSW 4.6 mph - N/A   Partly Cloudy
1:53 PM 52.0 °F - 34.0 °F 50% 29.90 in 10.0 mi Variable 3.5 mph - N/A   Scattered Clouds
2:53 PM 54.0 °F - 34.0 °F 47% 29.91 in 10.0 mi West 3.5 mph - N/A   Clear
3:53 PM 55.0 °F - 36.0 °F 49% 29.92 in 10.0 mi Calm Calm - N/A   Clear
4:53 PM 52.0 °F - 37.0 °F 57% 29.95 in 10.0 mi Calm Calm - N/A   Scattered Clouds
5:53 PM 48.9 °F - 39.0 °F 69% 29.96 in 10.0 mi Calm Calm - N/A   Overcast
6:53 PM 46.0 °F - 39.0 °F 76% 29.99 in 10.0 mi Calm Calm - N/A   Overcast
7:53 PM 45.0 °F - 39.0 °F 80% 30.01 in 10.0 mi Calm Calm - N/A   Overcast
8:53 PM 48.0 °F - 39.0 °F 71% 30.03 in 10.0 mi Calm Calm - 0.00 in Rain Light Rain
9:53 PM 45.0 °F - 42.1 °F 90% 30.04 in 10.0 mi Calm Calm - 0.01 in Rain Light Rain
10:53 PM 44.1 °F - 39.9 °F 85% 30.05 in 10.0 mi Calm Calm - N/A   Overcast
11:53 PM 44.1 °F - 39.0 °F 82% 30.06 in 10.0 mi Calm Calm - N/A   Overcast